Location: Fiddletown
(38.4917°N, 120.6633°W)
Time: 19:51:41
(UTC-07:00)

Envisat - Visible Passes

Search period start: 20 October 2017 00:00
Search period end: 30 October 2017 00:00
Orbit: 764 x 766 km, 98.2° (Epoch: 20 October)

Date Brightness Start Highest point End Pass type
(mag) Time Alt. Az. Time Alt. Az. Time Alt. Az.
20 Oct 4.4 20:19:00 24° NNE 20:19:00 24° NNE 20:21:16 10° N visible
20 Oct 5.9 21:59:13 12° NW 21:59:13 12° NW 21:59:36 10° NW visible
21 Oct 4.8 19:42:01 15° NE 19:42:01 15° NE 19:43:35 10° NNE visible
21 Oct 5.2 21:22:14 19° NNW 21:22:14 19° NNW 21:23:43 10° NNW visible
22 Oct 4.7 20:45:15 23° N 20:45:15 23° N 20:47:07 10° N visible
23 Oct 4.7 20:08:16 19° NNE 20:08:16 19° NNE 20:09:58 10° N visible
23 Oct 5.8 21:48:29 12° NW 21:48:29 12° NW 21:48:51 10° NW visible
24 Oct 5.0 19:31:16 12° NE 19:31:16 12° NE 19:31:56 10° NNE visible
24 Oct 5.2 21:11:29 17° NNW 21:11:29 17° NNW 21:12:42 10° NNW visible
25 Oct 4.9 20:34:30 19° N 20:34:30 19° N 20:35:57 10° N visible
26 Oct 4.9 19:57:31 15° NNE 19:57:31 15° NNE 19:58:37 10° NNE visible
26 Oct 5.8 21:37:43 11° NNW 21:37:43 11° NNW 21:37:59 10° NNW visible
27 Oct 5.3 21:00:44 15° NNW 21:00:44 15° NNW 21:01:38 10° NNW visible
28 Oct 5.1 20:23:44 15° N 20:23:44 15° N 20:24:43 10° N visible
29 Oct 5.1 19:46:44 12° NNE 19:46:44 12° NNE 19:47:09 10° NNE visible
29 Oct 5.8 21:26:57 11° NNW 21:26:57 11° NNW 21:27:03 10° NNW visible
